Le nostre stazioni meteo in Italia

Pubblicità
Il mio iltempo24.it
Ferrara, Italia (16138): Temperatura & dewpoint: 09.11.2018 08:00:00 - 15.11.2018 08:00:00 (CET)Ferrara, Italia (16138): velocità del vento: 09.11.2018 08:00:00 - 15.11.2018 08:00:00 (CET)Ferrara, Italia (16138): direzione del vento: 09.11.2018 08:00:00 - 15.11.2018 08:00:00 (CET)Ferrara, Italia (16138): reduced air pressure: 09.11.2018 08:00:00 - 15.11.2018 08:00:00 (CET)Ferrara, Italia (16138): visibility: 09.11.2018 08:00:00 - 15.11.2018 08:00:00 (CET)
Data & Tempo tt [°C] td [°C] ff [km/h] ff [kn] dd ppp [hPa] vv [km]
15.11.2018 08:00:00 8,0 8,0 5 3 NO - 0,3
15.11.2018 07:00:00 9,0 8,5 5 3 O 1027,1 0,1
15.11.2018 06:00:00 - - - - - - -
15.11.2018 05:00:00 - - - - - - -
15.11.2018 04:00:00 - - - - - - -
15.11.2018 03:00:00 - - - - - - -
15.11.2018 02:00:00 - - - - - - -
15.11.2018 01:00:00 - - - - - - -
15.11.2018 00:00:00 - - - - - - -
14.11.2018 23:00:00 - - - - - - -
14.11.2018 22:00:00 - - - - - - -
14.11.2018 21:00:00 - - - - - - -
14.11.2018 20:00:00 - - - - - - -
14.11.2018 19:00:00 12,2 11,3 0 0 N 1027,5 6
14.11.2018 18:00:00 13,0 11,0 0 0 N - 6
14.11.2018 17:00:00 14,0 12,0 0 0 N - 6
14.11.2018 16:00:00 15,8 12,4 5 3 OSO 1027,3 8
14.11.2018 15:00:00 17,0 13,0 8 4 OSO - 10
14.11.2018 14:00:00 17,0 13,0 4 2 SSO - 6
14.11.2018 13:00:00 15,2 12,0 4 2 NNO 1028,7 6
14.11.2018 12:00:00 15,0 12,0 5 3 N - 3,0
14.11.2018 11:00:00 14,0 12,0 0 0 N - 2,0
14.11.2018 10:00:00 13,4 12,3 4 2 N 1029,2 1,8
14.11.2018 09:00:00 13,0 12,0 0 0 N - 1,5
14.11.2018 08:00:00 13,0 12,0 0 0 N - 1,5
14.11.2018 07:00:00 13,2 12,6 0 0 N 1028,3 3,0
14.11.2018 06:00:00 - - - - - - -
14.11.2018 05:00:00 - - - - - - -
14.11.2018 04:00:00 - - - - - - -
14.11.2018 03:00:00 - - - - - - -
14.11.2018 02:00:00 - - - - - - -
14.11.2018 01:00:00 - - - - - - -
14.11.2018 00:00:00 - - - - - - -
13.11.2018 23:00:00 - - - - - - -
13.11.2018 22:00:00 - - - - - - -
13.11.2018 21:00:00 - - - - - - -
13.11.2018 20:00:00 - - - - - - -
13.11.2018 19:00:00 13,6 12,3 0 0 N 1027,5 10
13.11.2018 18:00:00 14,0 13,0 0 0 N - 10
13.11.2018 17:00:00 16,0 13,0 0 0 N - 10
13.11.2018 16:00:00 17,2 13,3 0 0 N 1027,3 10
13.11.2018 15:00:00 17,0 13,0 0 0 N - 10
13.11.2018 14:00:00 17,0 13,0 4 2 S - 10
13.11.2018 13:00:00 16,4 12,8 0 0 N 1028,0 7
13.11.2018 12:00:00 15,0 12,0 4 2 ONO - 6
13.11.2018 11:00:00 15,0 13,0 4 2 SO - 3,0
13.11.2018 10:00:00 14,6 12,3 4 2 SSO 1028,1 2,0
13.11.2018 09:00:00 13,0 12,0 0 0 N - 2,0
13.11.2018 08:00:00 12,0 11,0 0 0 N - 1,5
13.11.2018 07:00:00 12,6 11,3 4 2 SSO 1027,2 1,5
13.11.2018 06:00:00 - - - - - - -
13.11.2018 05:00:00 - - - - - - -
13.11.2018 04:00:00 - - - - - - -
13.11.2018 03:00:00 - - - - - - -
13.11.2018 02:00:00 - - - - - - -
13.11.2018 01:00:00 - - - - - - -
13.11.2018 00:00:00 - - - - - - -
12.11.2018 23:00:00 - - - - - - -
12.11.2018 22:00:00 - - - - - - -
12.11.2018 21:00:00 - - - - - - -
12.11.2018 20:00:00 - - - - - - -
12.11.2018 19:00:00 14,6 11,9 0 0 N 1027,1 3,0
12.11.2018 18:00:00 15,0 12,0 0 0 N - 1,5
12.11.2018 17:00:00 15,0 12,0 0 0 N - 1,5
12.11.2018 16:00:00 15,4 12,2 4 2 S 1026,6 1,5
12.11.2018 15:00:00 16,0 13,0 4 2 S - 2,0
12.11.2018 14:00:00 16,0 13,0 0 0 N - 3,0
12.11.2018 13:00:00 15,6 12,9 0 0 N 1027,1 1,2
12.11.2018 12:00:00 15,0 13,0 4 2 S - 0,9
12.11.2018 11:00:00 14,0 13,0 0 0 N - 0,8
12.11.2018 10:00:00 14,0 13,5 0 0 N 1026,5 0,5
12.11.2018 09:00:00 14,0 13,0 0 0 N - 0,3
12.11.2018 08:00:00 14,0 13,0 0 0 N - 0,5
12.11.2018 07:00:00 13,8 13,3 0 0 N 1025,0 0,5
12.11.2018 06:00:00 - - - - - - -
12.11.2018 05:00:00 - - - - - - -
12.11.2018 04:00:00 - - - - - - -
12.11.2018 03:00:00 - - - - - - -
12.11.2018 02:00:00 - - - - - - -
12.11.2018 01:00:00 - - - - - - -
12.11.2018 00:00:00 - - - - - - -
11.11.2018 23:00:00 - - - - - - -
11.11.2018 22:00:00 - - - - - - -
11.11.2018 21:00:00 - - - - - - -
11.11.2018 20:00:00 - - - - - - -
11.11.2018 19:00:00 14,8 13,4 4 2 NNE 1022,5 10
11.11.2018 18:00:00 15,0 13,0 4 2 NE - 10
11.11.2018 17:00:00 17,0 14,0 5 3 NNE - 10
11.11.2018 16:00:00 17,6 14,1 4 2 NE 1021,5 10
11.11.2018 15:00:00 18,0 14,0 8 4 NE - 10
11.11.2018 14:00:00 18,0 14,0 8 4 ENE - 10
11.11.2018 13:00:00 17,4 13,7 8 4 ENE 1020,6 8
11.11.2018 12:00:00 17,0 14,0 5 3 ENE - 4,0
11.11.2018 11:00:00 16,0 13,0 5 3 NE - 4,0
11.11.2018 10:00:00 13,8 12,4 5 3 NE 1019,7 3,0
11.11.2018 09:00:00 12,0 12,0 4 2 NNE - 2,0
11.11.2018 08:00:00 12,0 11,0 4 2 ENE - 1,2
11.11.2018 07:00:00 11,6 11,3 4 2 ENE 1018,1 0,8
11.11.2018 06:00:00 - - - - - - -
11.11.2018 05:00:00 - - - - - - -
11.11.2018 04:00:00 - - - - - - -
11.11.2018 03:00:00 - - - - - - -
11.11.2018 02:00:00 - - - - - - -
11.11.2018 01:00:00 - - - - - - -
11.11.2018 00:00:00 - - - - - - -
10.11.2018 23:00:00 - - - - - - -
10.11.2018 22:00:00 - - - - - - -
10.11.2018 21:00:00 - - - - - - -
10.11.2018 20:00:00 - - - - - - -
10.11.2018 19:00:00 13,0 11,2 5 3 ENE 1017,3 8
10.11.2018 18:00:00 13,0 11,0 4 2 NE - 8
10.11.2018 17:00:00 14,0 11,0 5 3 NNE - 8
10.11.2018 16:00:00 14,0 11,7 4 2 NNE 1016,8 10
10.11.2018 15:00:00 14,0 11,0 0 0 N - 10
10.11.2018 14:00:00 14,0 12,0 4 2 NNE - 8
10.11.2018 13:00:00 13,6 11,5 4 2 NE 1017,7 8
10.11.2018 12:00:00 13,0 11,0 0 0 N - 8
10.11.2018 11:00:00 13,0 12,0 4 2 NNE - 4,0
10.11.2018 10:00:00 12,0 11,1 0 0 N 1018,3 4,0
10.11.2018 09:00:00 12,0 11,0 0 0 N - 2,0
10.11.2018 08:00:00 11,0 11,0 4 2 NE - 1,2
10.11.2018 07:00:00 11,6 11,1 0 0 N 1017,7 0,8
10.11.2018 06:00:00 - - - - - - -
10.11.2018 05:00:00 - - - - - - -
10.11.2018 04:00:00 - - - - - - -
10.11.2018 03:00:00 - - - - - - -
10.11.2018 02:00:00 - - - - - - -
10.11.2018 01:00:00 - - - - - - -
10.11.2018 00:00:00 - - - - - - -
09.11.2018 23:00:00 - - - - - - -
09.11.2018 22:00:00 - - - - - - -
09.11.2018 21:00:00 - - - - - - -
09.11.2018 20:00:00 - - - - - - -
09.11.2018 19:00:00 12,8 11,4 5 3 ENE 1018,6 3,0
09.11.2018 18:00:00 13,0 11,0 5 3 E - 3,0
09.11.2018 17:00:00 13,0 12,0 2 1 E - 3,0
09.11.2018 16:00:00 13,8 11,9 2 1 ENE 1018,6 3,0
09.11.2018 15:00:00 14,0 12,0 8 4 ENE - 4,0
09.11.2018 14:00:00 15,0 12,0 5 3 ENE - 4,0
09.11.2018 13:00:00 14,0 11,9 4 2 ENE 1019,4 4,0
09.11.2018 12:00:00 13,0 12,0 4 2 SE - 3,5
09.11.2018 11:00:00 12,0 11,0 - - - - 2,0
09.11.2018 10:00:00 11,8 11,2 0 0 N 1020,1 1,2
09.11.2018 09:00:00 11,0 11,0 - - - - 0,8
09.11.2018 08:00:00 11,0 10,0 - - - - 0,3

tt = Temperatura
td = dewpoint
ff = velocità del vento
dd = direzione del vento
ppp = reduced air pressure
vv = visibility

Stazioni seguenti

WeatherPro
AMSI
MeteoEarth